When you browse on this site, cookies collect data to enhance your experience and personalize the content and advertising you see.
Visit our Privacy Policy to learn more. By continuing to use the site, you agree to this use of cookies and data.
  • în România
  • Lista ţărilor
  • Pe 7 zile
  • Temperatura apei
  • Hartă satelitară
  • Meteo pe hartă
  • Widget-uri
  • user-avatar
    Intrare

    Meteo pe oră la Kalgoorlie

    Astăzi, 20 Mai, Luni

    Timp Temperatura Precipitaţii Vânt Presiune Umiditate
    00:00 +13°C° 0 mm 4 m/s 731 mmHg 37%
    01:00 +13°C° 0 mm 4 m/s 731 mmHg 37%
    02:00 +13°C° 0 mm 4 m/s 730 mmHg 36%
    03:00 +13°C° 0 mm 5 m/s 730 mmHg 35%
    04:00 +13°C° 0 mm 5 m/s 730 mmHg 34%
    05:00 +12°C° 0 mm 5 m/s 730 mmHg 32%
    06:00 +13°C° 0 mm 5 m/s 730 mmHg 31%
    07:00 +14°C° 0 mm 5 m/s 730 mmHg 29%
    08:00 +15°C° 0 mm 6 m/s 730 mmHg 27%
    09:00 +17°C° 0 mm 6 m/s 730 mmHg 24%
    10:00 +20°C° 0 mm 7 m/s 731 mmHg 21%
    11:00 +23°C° 0 mm 7 m/s 731 mmHg 17%
    12:00 +23°C° 0 mm 7 m/s 730 mmHg 17%
    13:00 +23°C° 0 mm 6 m/s 730 mmHg 17%
    14:00 +23°C° 0 mm 5 m/s 730 mmHg 17%
    15:00 +22°C° 0 mm 4 m/s 730 mmHg 22%
    16:00 +22°C° 0 mm 4 m/s 730 mmHg 26%
    17:00 +21°C° 0 mm 3 m/s 730 mmHg 30%
    18:00 +20°C° 0 mm 3 m/s 731 mmHg 40%
    19:00 +19°C° 0 mm 3 m/s 731 mmHg 50%
    20:00 +18°C° 0 mm 3 m/s 732 mmHg 59%
    21:00 +18°C° 0 mm 3 m/s 732 mmHg 66%
    22:00 +17°C° 0 mm 3 m/s 732 mmHg 73%
    23:00 +17°C° 0 mm 3 m/s 732 mmHg 80%

    Mâine, 21 Mai, Marţi

    Timp Temperatura Precipitaţii Vânt Presiune Umiditate
    00:00 +16°C° 0 mm 3 m/s 732 mmHg 83%
    01:00 +16°C° 0 mm 2 m/s 732 mmHg 85%
    02:00 +15°C° 0 mm 2 m/s 732 mmHg 88%
    03:00 +15°C° 0 mm 2 m/s 733 mmHg 89%
    04:00 +14°C° 0 mm 1 m/s 733 mmHg 90%
    05:00 +14°C° 0 mm 1 m/s 733 mmHg 91%
    06:00 +15°C° 0 mm 1 m/s 733 mmHg 88%
    07:00 +15°C° 0 mm 1 m/s 734 mmHg 84%
    08:00 +16°C° 0 mm 1 m/s 734 mmHg 81%
    09:00 +18°C° 0 mm 1 m/s 734 mmHg 75%
    10:00 +19°C° 0 mm 2 m/s 734 mmHg 69%
    11:00 +20°C° 0 mm 2 m/s 734 mmHg 63%
    12:00 +21°C° 0 mm 2 m/s 734 mmHg 61%
    13:00 +22°C° 0 mm 1 m/s 733 mmHg 59%
    14:00 +23°C° 0 mm 1 m/s 733 mmHg 57%
    15:00 +22°C° 0 mm 1 m/s 733 mmHg 59%
    16:00 +22°C° 0 mm 1 m/s 733 mmHg 61%
    17:00 +22°C° 0 mm 1 m/s 734 mmHg 63%
    18:00 +21°C° 0 mm 1 m/s 734 mmHg 65%
    19:00 +19°C° 0 mm 2 m/s 734 mmHg 67%
    20:00 +19°C° 0 mm 2 m/s 735 mmHg 69%
    21:00 +18°C° 0 mm 3 m/s 735 mmHg 71%
    22:00 +18°C° 0 mm 3 m/s 735 mmHg 72%
    23:00 +18°C° 0 mm 3 m/s 735 mmHg 73%

    Poimâine, 22 Mai, Miercuri

    Timp Temperatura Precipitaţii Vânt Presiune Umiditate
    00:00 +17°C° 0 mm 4 m/s 735 mmHg 75%
    01:00 +17°C° 0 mm 4 m/s 735 mmHg 76%
    02:00 +17°C° 0 mm 4 m/s 734 mmHg 78%
    03:00 +15°C° 0 mm 4 m/s 734 mmHg 75%
    04:00 +15°C° 0 mm 4 m/s 734 mmHg 73%
    05:00 +14°C° 0 mm 4 m/s 734 mmHg 70%
    06:00 +15°C° 0 mm 4 m/s 734 mmHg 66%
    07:00 +15°C° 0 mm 4 m/s 735 mmHg 62%
    08:00 +17°C° 0 mm 4 m/s 735 mmHg 58%
    09:00 +19°C° 0 mm 5 m/s 735 mmHg 49%
    10:00 +21°C° 0 mm 5 m/s 735 mmHg 40%
    11:00 +23°C° 0 mm 6 m/s 735 mmHg 31%
    12:00 +24°C° 0 mm 6 m/s 734 mmHg 27%
    13:00 +27°C° 0 mm 7 m/s 733 mmHg 23%
    14:00 +28°C° 0 mm 7 m/s 733 mmHg 19%
    15:00 +27°C° 0 mm 5 m/s 732 mmHg 20%
    16:00 +26°C° 0 mm 4 m/s 732 mmHg 20%
    17:00 +25°C° 0 mm 3 m/s 732 mmHg 21%
    18:00 +24°C° 0 mm 3 m/s 732 mmHg 22%
    19:00 +24°C° 0 mm 3 m/s 733 mmHg 23%
    20:00 +22°C° 0 mm 3 m/s 733 mmHg 23%
    21:00 +22°C° 0 mm 3 m/s 733 mmHg 26%
    22:00 +21°C° 0 mm 4 m/s 733 mmHg 28%
    23:00 +20°C° 0 mm 4 m/s 733 mmHg 30%

    23 Mai, Joi

    Timp Temperatura Precipitaţii Vânt Presiune Umiditate
    00:00 +20°C° 0 mm 4 m/s 733 mmHg 36%
    01:00 +19°C° 0 mm 4 m/s 733 mmHg 43%
    02:00 +18°C° 0 mm 3 m/s 733 mmHg 50%
    03:00 +17°C° 0 mm 3 m/s 733 mmHg 56%
    04:00 +17°C° 0 mm 3 m/s 733 mmHg 62%
    05:00 +16°C° 0 mm 2 m/s 733 mmHg 68%
    06:00 +16°C° 0 mm 3 m/s 733 mmHg 67%
    07:00 +17°C° 0 mm 3 m/s 734 mmHg 67%
    08:00 +17°C° 0 mm 3 m/s 735 mmHg 66%
    09:00 +19°C° 0 mm 4 m/s 735 mmHg 58%
    10:00 +20°C° 0 mm 4 m/s 735 mmHg 50%
    11:00 +22°C° 0 mm 4 m/s 735 mmHg 41%
    12:00 +23°C° 0 mm 5 m/s 734 mmHg 40%
    13:00 +23°C° 0 mm 5 m/s 734 mmHg 39%
    14:00 +25°C° 0 mm 5 m/s 734 mmHg 38%
    15:00 +23°C° 0 mm 4 m/s 734 mmHg 41%
    16:00 +22°C° 0 mm 4 m/s 734 mmHg 44%
    17:00 +21°C° 0 mm 3 m/s 734 mmHg 47%
    18:00 +20°C° 0 mm 3 m/s 735 mmHg 50%
    19:00 +19°C° 0 mm 3 m/s 735 mmHg 52%
    20:00 +19°C° 0 mm 2 m/s 735 mmHg 54%
    21:00 +18°C° 0 mm 3 m/s 735 mmHg 56%
    22:00 +18°C° 0 mm 3 m/s 735 mmHg 58%
    23:00 +17°C° 0 mm 4 m/s 735 mmHg 60%

    24 Mai, Vineri

    Timp Temperatura Precipitaţii Vânt Presiune Umiditate
    00:00 +17°C° 0 mm 4 m/s 735 mmHg 62%
    01:00 +17°C° 0 mm 4 m/s 735 mmHg 63%
    02:00 +15°C° 0 mm 4 m/s 735 mmHg 64%
    03:00 +15°C° 0 mm 4 m/s 735 mmHg 66%
    04:00 +15°C° 0 mm 4 m/s 735 mmHg 69%
    05:00 +14°C° 0 mm 4 m/s 735 mmHg 71%
    06:00 +14°C° 0 mm 4 m/s 735 mmHg 71%
    07:00 +14°C° 0 mm 4 m/s 735 mmHg 71%
    08:00 +15°C° 0 mm 4 m/s 735 mmHg 70%
    09:00 +17°C° 0 mm 4 m/s 735 mmHg 67%
    10:00 +17°C° 0 mm 4 m/s 735 mmHg 64%
    11:00 +18°C° 0 mm 4 m/s 735 mmHg 60%
    12:00 +19°C° 0 mm 4 m/s 734 mmHg 58%
    13:00 +19°C° 0 mm 4 m/s 734 mmHg 56%
    14:00 +20°C° 0 mm 4 m/s 733 mmHg 53%
    15:00 +20°C° 0 mm 4 m/s 733 mmHg 55%
    16:00 +19°C° 0 mm 3 m/s 734 mmHg 56%
    17:00 +19°C° 0 mm 3 m/s 734 mmHg 57%
    18:00 +18°C° 0 mm 3 m/s 734 mmHg 59%
    19:00 +18°C° 0 mm 3 m/s 734 mmHg 61%
    20:00 +18°C° 0 mm 4 m/s 734 mmHg 63%
    21:00 +17°C° 0 mm 3 m/s 734 mmHg 65%
    22:00 +17°C° 0 mm 3 m/s 734 mmHg 67%
    23:00 +16°C° 0 mm 3 m/s 734 mmHg 69%

    25 Mai, Sâmbătă

    Timp Temperatura Precipitaţii Vânt Presiune Umiditate
    00:00 +16°C° 0 mm 3 m/s 734 mmHg 69%
    01:00 +16°C° 0 mm 2 m/s 734 mmHg 69%
    02:00 +16°C° 0 mm 2 m/s 734 mmHg 69%
    03:00 +16°C° 0 mm 2 m/s 734 mmHg 71%
    04:00 +16°C° 0 mm 3 m/s 734 mmHg 73%
    05:00 +14°C° 0 mm 3 m/s 734 mmHg 74%
    06:00 +14°C° 0 mm 3 m/s 734 mmHg 74%
    07:00 +16°C° 0 mm 3 m/s 735 mmHg 74%
    08:00 +15°C° 0 mm 4 m/s 735 mmHg 73%
    09:00 +17°C° 0 mm 4 m/s 735 mmHg 67%
    10:00 +19°C° 0 mm 4 m/s 735 mmHg 61%
    11:00 +20°C° 0 mm 3 m/s 735 mmHg 54%
    12:00 +21°C° 0 mm 4 m/s 734 mmHg 52%
    13:00 +21°C° 0 mm 4 m/s 734 mmHg 49%
    14:00 +22°C° 0 mm 4 m/s 733 mmHg 46%
    15:00 +21°C° 0 mm 4 m/s 734 mmHg 44%
    16:00 +21°C° 0 mm 4 m/s 734 mmHg 43%
    17:00 +20°C° 0 mm 4 m/s 734 mmHg 41%
    18:00 +19°C° 0 mm 4 m/s 735 mmHg 42%
    19:00 +17°C° 0 mm 5 m/s 735 mmHg 43%
    20:00 +16°C° 0 mm 5 m/s 736 mmHg 43%
    21:00 +16°C° 0 mm 6 m/s 736 mmHg 50%
    22:00 +15°C° 0 mm 6 m/s 736 mmHg 56%
    23:00 +15°C° 0 mm 7 m/s 736 mmHg 62%
    Arată mai mult